LITUANICASAT-2 (42768 NORAD) Tracking and Keplerian Element Data

This shows tracking and keplerian element data for the satellite.

Feedback or suggestion? Click here.




ElementValue
Catalog42768
NameLITUANICASAT-2
Epoch Orbit10174
Epoch Day113.39458637
Epoch Year2019
RAAN172.1696
Inclination97.36
Eccentricity0.0016699
Argument of Perigee62.1213
Mean Anonmoly298.1713
Mean Motion15.22563347
Decay Rate1.976E-05
L11 42768U 17036D 19113.39458637 .00001976 00000-0 87832-4 0 9999
L22 42768 97.3600 172.1696 0016699 62.1213 298.1713 15.22563347101744

Live tracking and technical data element details for LITUANICASAT-2 (NORAD 42768). LITUANICASAT-2 can be tracked NOW for your location showing map with azimuth and elevation plus other details from your city location.

Track the satellite on the map from your city or location and see movement details for azimuth, elevation, latitude, longitude, range, height, and movement on the map or in text.







IsCatalogInMostPopularTable: catalog: 42768, numindb: 184
Update: records affected: 1



GetName: 42768 LITUANICASAT-2

Hit Count: updated at: Wed, 24 Apr 2019 17:49:04 GMT